| time (UTC) | temp C | wind direction | speed KPH | gust KPH | rain 1hr cm | rain 24hr cm | rain mn cm | humidity % | barometer mb |
| 20260507201134 | 19 | 119 | 0.0 | 6.4 | 0.00 | 0.48 | 0.36 | 27 | 1004.2 |
| 20260507200634 | 19 | 23 | 0.0 | 4.8 | 0.00 | 0.51 | 0.36 | 27 | 1004.2 |
| 20260507200135 | 19 | 311 | 0.0 | 1.6 | 0.00 | 0.51 | 0.36 | 27 | 1004.4 |
| 20260507195634 | 19 | 326 | 0.0 | 6.4 | 0.00 | 0.51 | 0.36 | 27 | 1004.3 |
| 20260507195134 | 19 | 146 | 0.0 | 12.9 | 0.00 | 0.51 | 0.36 | 26 | 1004.3 |
| 20260507194636 | 20 | 61 | 0.0 | 12.9 | 0.00 | 0.51 | 0.36 | 27 | 1004.4 |
| 20260507194135 | 20 | 354 | 0.0 | 8.0 | 0.00 | 0.53 | 0.36 | 27 | 1004.4 |
| 20260507193635 | 20 | 18 | 0.0 | 0.0 | 0.00 | 0.53 | 0.36 | 28 | 1004.4 |
| 20260507193139 | 19 | 359 | 0.0 | 6.4 | 0.00 | 0.53 | 0.36 | 28 | 1004.5 |
| 20260507193134 | 19 | 118 | 0.0 | 4.8 | 0.00 | 0.53 | 0.36 | 29 | 1004.4 |
| 20260507192139 | 19 | 15 | 0.0 | 9.7 | 0.00 | 0.53 | 0.36 | 29 | 1004.6 |
| 20260507192135 | 19 | 198 | 0.0 | 6.4 | 0.00 | 0.53 | 0.36 | 27 | 1004.6 |
| 20260507191134 | 19 | 47 | 0.0 | 9.7 | 0.00 | 0.53 | 0.36 | 27 | 1004.6 |
| 20260507190634 | 20 | 56 | 0.0 | 6.4 | 0.00 | 0.53 | 0.36 | 28 | 1004.6 |
| 20260507190135 | 20 | 94 | 0.0 | 6.4 | 0.00 | 0.53 | 0.36 | 28 | 1004.7 |
| 20260507185636 | 20 | 27 | 0.0 | 6.4 | 0.00 | 0.53 | 0.36 | 28 | 1004.7 |
| 20260507185134 | 20 | 104 | 0.0 | 11.3 | 0.00 | 0.53 | 0.36 | 28 | 1004.7 |
| 20260507184636 | 19 | 245 | 0.0 | 12.9 | 0.00 | 0.53 | 0.36 | 29 | 1004.9 |
| 20260507184632 | 19 | 267 | 0.0 | 4.8 | 0.00 | 0.53 | 0.36 | 29 | 1004.9 |
| 20260507183633 | 18 | 63 | 0.0 | 1.6 | 0.00 | 0.53 | 0.36 | 29 | 1004.9 |
| 20260507183629 | 18 | 286 | 0.0 | 1.6 | 0.00 | 0.53 | 0.36 | 29 | 1005.0 |
| 20260507182628 | 18 | 205 | 0.0 | 1.6 | 0.00 | 0.53 | 0.36 | 31 | 1005.0 |
| 20260507182126 | 18 | 44 | 0.0 | 1.6 | 0.00 | 0.53 | 0.36 | 31 | 1005.0 |
| 20260507181625 | 18 | 354 | 0.0 | 0.0 | 0.00 | 0.53 | 0.36 | 34 | 1005.0 |
| 20260507181123 | 18 | 39 | 0.0 | 4.8 | 0.00 | 0.53 | 0.36 | 34 | 1005.2 |
| 20260507180626 | 18 | 151 | 0.0 | 9.7 | 0.00 | 0.53 | 0.36 | 34 | 1005.3 |
| 20260507180622 | 18 | 231 | 0.0 | 4.8 | 0.00 | 0.53 | 0.36 | 33 | 1005.2 |
| 20260507175622 | 18 | 328 | 0.0 | 9.7 | 0.00 | 0.53 | 0.36 | 34 | 1005.3 |
| 20260507175120 | 18 | 326 | 0.0 | 0.0 | 0.00 | 0.53 | 0.36 | 36 | 1005.2 |
| 20260507174625 | 18 | 113 | 0.0 | 3.2 | 0.00 | 0.53 | 0.36 | 37 | 1005.2 |
| 20260507174621 | 18 | 52 | 0.0 | 3.2 | 0.00 | 0.53 | 0.36 | 37 | 1005.1 |
| 20260507173621 | 18 | 307 | 0.0 | 4.8 | 0.00 | 0.53 | 0.36 | 39 | 1005.2 |
| 20260507173120 | 18 | 343 | 0.0 | 4.8 | 0.00 | 0.53 | 0.36 | 41 | 1005.1 |
| 20260507172620 | 18 | 69 | 0.0 | 1.6 | 0.00 | 0.53 | 0.36 | 43 | 1005.3 |
| 20260507172120 | 18 | 297 | 0.0 | 11.3 | 0.00 | 0.53 | 0.36 | 43 | 1005.2 |
| 20260507171622 | 17 | 127 | 0.0 | 4.8 | 0.00 | 0.53 | 0.36 | 42 | 1005.3 |
| 20260507171618 | 17 | 18 | 0.0 | 11.3 | 0.00 | 0.53 | 0.36 | 42 | 1005.3 |
| 20260507170618 | 17 | 226 | 0.0 | 1.6 | 0.00 | 0.53 | 0.36 | 45 | 1005.3 |
| 20260507170117 | 17 | 75 | 0.0 | 1.6 | 0.00 | 0.53 | 0.36 | 45 | 1005.4 |
| 20260507165620 | 17 | 339 | 0.0 | 0.0 | 0.00 | 0.53 | 0.36 | 46 | 1005.4 |
| 20260507165616 | 17 | 281 | 0.0 | 1.6 | 0.00 | 0.53 | 0.36 | 45 | 1005.6 |
| 20260507164616 | 18 | 323 | 0.0 | 1.6 | 0.00 | 0.53 | 0.36 | 45 | 1005.6 |
| 20260507164117 | 18 | 314 | 0.0 | 1.6 | 0.00 | 0.53 | 0.36 | 46 | 1005.6 |
| 20260507163616 | 17 | 60 | 0.0 | 0.0 | 0.00 | 0.53 | 0.36 | 48 | 1005.6 |
| 20260507163116 | 17 | 357 | 0.0 | 0.0 | 0.00 | 0.53 | 0.36 | 48 | 1005.7 |
| 20260507162621 | 17 | 336 | 0.0 | 0.0 | 0.00 | 0.53 | 0.36 | 48 | 1005.8 |
| 20260507162617 | 17 | 138 | 0.0 | 0.0 | 0.00 | 0.53 | 0.36 | 47 | 1005.9 |
| 20260507162220 | 17 | 357 | 0.0 | 1.6 | 0.00 | 0.53 | 0.36 | 46 | 1005.9 |
| 20260507161115 | 17 | 144 | 0.0 | 1.6 | 0.00 | 0.53 | 0.36 | 49 | 1005.9 |
| 20260507160614 | 17 | 350 | 0.0 | 1.6 | 0.00 | 0.53 | 0.36 | 49 | 1006.1 |
| 20260507160117 | 17 | 221 | 0.0 | 1.6 | 0.00 | 0.53 | 0.36 | 48 | 1006.2 |
| 20260507160112 | 17 | 128 | 0.0 | 1.6 | 0.00 | 0.53 | 0.36 | 48 | 1006.1 |
| 20260507155716 | 17 | 2 | 0.0 | 1.6 | 0.00 | 0.53 | 0.36 | 47 | 1006.2 |
| 20260507154613 | 17 | 68 | 0.0 | 0.0 | 0.00 | 0.53 | 0.36 | 47 | 1006.2 |
| 20260507154111 | 17 | 321 | 0.0 | 0.0 | 0.00 | 0.53 | 0.36 | 50 | 1006.3 |
| 20260507153612 | 17 | 51 | 0.0 | 0.0 | 0.00 | 0.53 | 0.36 | 47 | 1006.3 |
| 20260507153116 | 16 | 55 | 0.0 | 0.0 | 0.00 | 0.53 | 0.36 | 47 | 1006.4 |
| 20260507153112 | 17 | 271 | 0.0 | 0.0 | 0.00 | 0.53 | 0.36 | 49 | 1006.3 |
| 20260507152112 | 16 | 68 | 0.0 | 1.6 | 0.00 | 0.53 | 0.36 | 48 | 1006.5 |
| 20260507152108 | 16 | 229 | 0.0 | 1.6 | 0.00 | 0.53 | 0.36 | 48 | 1006.5 |
| 20260507151107 | 17 | 288 | 0.0 | 1.6 | 0.00 | 0.53 | 0.36 | 45 | 1006.5 |
| 20260507150608 | 17 | 316 | 0.0 | 1.6 | 0.00 | 0.53 | 0.36 | 45 | 1006.5 |
| 20260507150108 | 16 | 8 | 0.0 | 1.6 | 0.00 | 0.53 | 0.36 | 46 | 1006.6 |
| 20260507145609 | 16 | 252 | 0.0 | 4.8 | 0.00 | 0.53 | 0.36 | 49 | 1006.6 |
| 20260507145108 | 16 | 73 | 0.0 | 4.8 | 0.00 | 0.53 | 0.36 | 47 | 1006.7 |
| 20260507144608 | 16 | 127 | 0.0 | 1.6 | 0.00 | 0.53 | 0.36 | 48 | 1006.7 |
| 20260507144108 | 16 | 346 | 0.0 | 3.2 | 0.00 | 0.53 | 0.36 | 49 | 1006.9 |
| 20260507143612 | 15 | 53 | 0.0 | 0.0 | 0.00 | 0.53 | 0.36 | 51 | 1006.8 |
| 20260507143608 | 16 | 339 | 0.0 | 3.2 | 0.00 | 0.53 | 0.36 | 50 | 1006.8 |
| 20260507143211 | 15 | 250 | 0.0 | 0.0 | 0.00 | 0.53 | 0.36 | 53 | 1006.9 |
| 20260507142110 | 15 | 264 | 0.0 | 4.8 | 0.00 | 0.53 | 0.36 | 52 | 1006.9 |
| 20260507142106 | 15 | 300 | 0.0 | 4.8 | 0.00 | 0.53 | 0.36 | 53 | 1006.9 |
| 20260507141106 | 15 | 76 | 0.0 | 4.8 | 0.00 | 0.53 | 0.36 | 56 | 1006.8 |
| 20260507140605 | 15 | 98 | 0.0 | 4.8 | 0.00 | 0.53 | 0.36 | 56 | 1006.9 |
| 20260507140107 | 15 | 191 | 0.0 | 1.6 | 0.00 | 0.53 | 0.36 | 55 | 1006.9 |
| 20260507135606 | 15 | 294 | 0.0 | 1.6 | 0.00 | 0.53 | 0.36 | 56 | 1006.9 |
| 20260507135107 | 14 | 229 | 0.0 | 8.0 | 0.00 | 0.53 | 0.36 | 57 | 1006.8 |
| 20260507134606 | 14 | 316 | 0.0 | 8.0 | 0.00 | 0.53 | 0.36 | 58 | 1006.8 |
| 20260507134110 | 14 | 39 | 0.0 | 3.2 | 0.00 | 0.53 | 0.36 | 59 | 1006.9 |
| 20260507134105 | 14 | 269 | 0.0 | 3.2 | 0.00 | 0.53 | 0.36 | 58 | 1006.9 |
| 20260507133104 | 13 | 122 | 0.0 | 3.2 | 0.00 | 0.53 | 0.36 | 61 | 1006.9 |
| 20260507132604 | 13 | 89 | 0.0 | 6.4 | 0.00 | 0.53 | 0.36 | 62 | 1006.9 |
| 20260507132104 | 13 | 60 | 0.0 | 9.7 | 0.00 | 0.53 | 0.36 | 63 | 1007.1 |
| 20260507131605 | 13 | 319 | 1.6 | 9.7 | 0.00 | 0.53 | 0.36 | 66 | 1007.1 |
| 20260507131103 | 13 | 103 | 1.6 | 11.3 | 0.00 | 0.53 | 0.36 | 67 | 1007.1 |
| 20260507130604 | 12 | 269 | 1.6 | 11.3 | 0.00 | 0.53 | 0.36 | 69 | 1007.1 |
| 20260507125607 | 12 | 101 | 0.0 | 0.0 | 0.00 | 0.53 | 0.36 | 69 | 1007.4 |
| 20260507125603 | 12 | 240 | 0.0 | 4.8 | 0.00 | 0.53 | 0.36 | 70 | 1007.3 |
| 20260507125206 | 11 | 68 | 0.0 | 0.0 | 0.00 | 0.53 | 0.36 | 66 | 1007.3 |
| 20260507124100 | 11 | 100 | 0.0 | 4.8 | 0.00 | 0.53 | 0.36 | 60 | 1007.3 |
| 20260507123559 | 11 | 306 | 0.0 | 4.8 | 0.00 | 0.53 | 0.36 | 64 | 1007.3 |
| 20260507123101 | 10 | 47 | 0.0 | 3.2 | 0.00 | 0.53 | 0.36 | 59 | 1007.3 |
| 20260507122600 | 10 | 333 | 0.0 | 8.0 | 0.00 | 0.53 | 0.36 | 57 | 1007.0 |
| 20260507122059 | 10 | 248 | 0.0 | 8.0 | 0.00 | 0.53 | 0.36 | 54 | 1007.2 |
| 20260507121600 | 10 | 301 | 0.0 | 9.7 | 0.00 | 0.53 | 0.36 | 52 | 1007.3 |
| 20260507121058 | 10 | 25 | 0.0 | 9.7 | 0.00 | 0.53 | 0.36 | 52 | 1007.1 |
| 20260507120602 | 10 | 40 | 0.0 | 0.0 | 0.00 | 0.53 | 0.36 | 46 | 1007.0 |
| 20260507120558 | 10 | 328 | 0.0 | 0.0 | 0.00 | 0.53 | 0.36 | 49 | 1007.2 |
| 20260507115555 | 9 | 335 | 0.0 | 0.0 | 0.00 | 0.53 | 0.36 | 45 | 1007.2 |
| 20260507115056 | 9 | 335 | 0.0 | 0.0 | 0.00 | 0.53 | 0.36 | 45 | 1007.2 |
| 20260507114556 | 9 | 348 | 0.0 | 0.0 | 0.00 | 0.53 | 0.36 | 45 | 1007.2 |
| 20260507114055 | 9 | 243 | 0.0 | 0.0 | 0.00 | 0.53 | 0.36 | 43 | 1007.0 |
| 20260507113556 | 9 | 303 | 0.0 | 0.0 | 0.00 | 0.53 | 0.36 | 43 | 1006.9 |
| 20260507113055 | 9 | 321 | 0.0 | 0.0 | 0.00 | 0.53 | 0.36 | 42 | 1007.0 |
| 20260507112553 | 9 | 321 | 0.0 | 0.0 | 0.00 | 0.53 | 0.36 | 41 | 1006.9 |
| 20260507112053 | 9 | 320 | 0.0 | 0.0 | 0.00 | 0.53 | 0.36 | 42 | 1007.0 |
| 20260507111558 | 9 | 321 | 0.0 | 0.0 | 0.00 | 0.53 | 0.36 | 41 | 1006.9 |
| 20260507111554 | 9 | 321 | 0.0 | 0.0 | 0.00 | 0.53 | 0.36 | 41 | 1006.9 |
| 20260507111158 | 9 | 321 | 0.0 | 0.0 | 0.00 | 0.53 | 0.36 | 40 | 1006.7 |
| 20260507110054 | 9 | 321 | 0.0 | 0.0 | 0.00 | 0.53 | 0.36 | 41 | 1006.9 |
| 20260507105554 | 9 | 321 | 0.0 | 0.0 | 0.03 | 0.53 | 0.36 | 41 | 1006.9 |
| 20260507105053 | 9 | 320 | 0.0 | 0.0 | 0.05 | 0.53 | 0.36 | 42 | 1007.2 |
| 20260507104554 | 9 | 321 | 0.0 | 0.0 | 0.05 | 0.53 | 0.36 | 42 | 1007.2 |
| 20260507104054 | 9 | 321 | 0.0 | 0.0 | 0.10 | 0.53 | 0.36 | 42 | 1007.3 |
| 20260507103553 | 9 | 321 | 0.0 | 0.0 | 0.10 | 0.53 | 0.36 | 42 | 1007.2 |
| 20260507103053 | 9 | 321 | 0.0 | 0.0 | 0.13 | 0.53 | 0.36 | 43 | 1006.8 |
| 20260507102554 | 9 | 321 | 0.0 | 0.0 | 0.13 | 0.53 | 0.36 | 42 | 1006.6 |
| 20260507102051 | 9 | 321 | 0.0 | 0.0 | 0.15 | 0.53 | 0.36 | 43 | 1006.8 |
| 20260507101551 | 9 | 333 | 0.0 | 0.0 | 0.20 | 0.53 | 0.36 | 42 | 1006.9 |
| 20260507101054 | 9 | 333 | 0.0 | 0.0 | 0.20 | 0.53 | 0.36 | 42 | 1006.8 |
| 20260507101050 | 9 | 333 | 0.0 | 0.0 | 0.23 | 0.53 | 0.36 | 43 | 1006.7 |
| 20260507100049 | 9 | 333 | 0.0 | 0.0 | 0.25 | 0.53 | 0.36 | 43 | 1006.4 |
| 20260507095549 | 9 | 326 | 0.0 | 0.0 | 0.23 | 0.51 | 0.33 | 43 | 1006.4 |
| 20260507095050 | 9 | 325 | 0.0 | 0.0 | 0.20 | 0.48 | 0.33 | 44 | 1006.5 |
| 20260507094550 | 10 | 86 | 0.0 | 3.2 | 0.20 | 0.48 | 0.30 | 44 | 1006.6 |
| 20260507094049 | 10 | 8 | 0.0 | 3.2 | 0.18 | 0.43 | 0.25 | 43 | 1006.4 |
| 20260507093551 | 10 | 60 | 0.0 | 0.0 | 0.18 | 0.43 | 0.25 | 44 | 1006.4 |
| 20260507093049 | 10 | 314 | 0.0 | 0.0 | 0.15 | 0.41 | 0.25 | 44 | 1006.3 |
| 20260507092549 | 10 | 78 | 0.0 | 0.0 | 0.15 | 0.41 | 0.23 | 45 | 1006.3 |
| 20260507092055 | 10 | 259 | 0.0 | 3.2 | 0.10 | 0.33 | 0.18 | 45 | 1006.4 |
| 20260507092051 | 10 | 35 | 0.0 | 0.0 | 0.15 | 0.38 | 0.20 | 45 | 1006.3 |
| 20260507091050 | 10 | 322 | 0.0 | 6.4 | 0.10 | 0.33 | 0.15 | 45 | 1006.4 |
| 20260507090550 | 10 | 333 | 0.0 | 6.4 | 0.08 | 0.30 | 0.13 | 44 | 1006.7 |
| 20260507090050 | 10 | 110 | 0.0 | 0.0 | 0.08 | 0.28 | 0.10 | 44 | 1006.6 |
| 20260507085550 | 10 | 11 | 0.0 | 0.0 | 0.08 | 0.28 | 0.10 | 44 | 1006.6 |
| 20260507085050 | 10 | 1 | 0.0 | 0.0 | 0.08 | 0.28 | 0.10 | 42 | 1006.7 |
| 20260507084549 | 11 | 307 | 0.0 | 0.0 | 0.08 | 0.28 | 0.10 | 42 | 1006.5 |
| 20260507084049 | 11 | 313 | 0.0 | 0.0 | 0.08 | 0.25 | 0.08 | 43 | 1006.2 |
| 20260507083549 | 11 | 326 | 0.0 | 1.6 | 0.08 | 0.25 | 0.08 | 44 | 1006.2 |
| 20260507083050 | 11 | 342 | 0.0 | 1.6 | 0.08 | 0.25 | 0.08 | 45 | 1006.2 |
| 20260507082553 | 11 | 41 | 0.0 | 0.0 | 0.05 | 0.23 | 0.05 | 47 | 1005.9 |
| 20260507082549 | 11 | 317 | 0.0 | 0.0 | 0.08 | 0.25 | 0.08 | 46 | 1006.2 |
| 20260507081550 | 11 | 288 | 0.0 | 4.8 | 0.05 | 0.23 | 0.05 | 49 | 1006.1 |
| 20260507081051 | 11 | 288 | 0.0 | 4.8 | 0.05 | 0.23 | 0.05 | 50 | 1006.5 |
| 20260507080545 | 11 | 123 | 0.0 | 6.4 | 0.05 | 0.23 | 0.05 | 52 | 1006.2 |
| 20260507080045 | 11 | 319 | 0.0 | 6.4 | 0.03 | 0.20 | 0.03 | 54 | 1006.0 |
| 20260507075545 | 11 | 141 | 0.0 | 4.8 | 0.03 | 0.20 | 0.03 | 55 | 1006.0 |
| 20260507075046 | 11 | 332 | 0.0 | 6.4 | 0.03 | 0.20 | 0.03 | 58 | 1006.1 |
| 20260507074543 | 12 | 4 | 0.0 | 6.4 | 0.03 | 0.20 | 0.03 | 60 | 1006.2 |
| 20260507074041 | 12 | 293 | 0.0 | 8.0 | 0.00 | 0.18 | 0.00 | 61 | 1006.2 |
| 20260507073538 | 12 | 310 | 0.0 | 8.0 | 0.00 | 0.18 | 0.00 | 62 | 1006.0 |
| 20260507073142 | 12 | 299 | 0.0 | 0.0 | 0.00 | 0.18 | 0.00 | 60 | 1005.4 |
| 20260507073043 | 12 | 310 | 0.0 | 0.0 | 0.00 | 0.18 | 0.00 | 60 | 1005.4 |
| 20260507073039 | 12 | 347 | 0.0 | 0.0 | 0.00 | 0.18 | 0.00 | 61 | 1005.5 |
| 20260507072746 | 12 | 326 | 0.0 | 0.0 | 0.00 | 0.18 | 0.00 | 59 | 1005.5 |
| 20260507071033 | 12 | 27 | 0.0 | 1.6 | 0.00 | 0.18 | 0.00 | 59 | 1005.6 |
| 20260507070533 | 12 | 335 | 0.0 | 1.6 | 0.00 | 0.18 | 0.00 | 60 | 1005.5 |
| 20260507070033 | 12 | 259 | 0.0 | 8.0 | 0.00 | 0.18 | 0.00 | 60 | 1005.3 |
| 20260507065531 | 12 | 330 | 0.0 | 8.0 | 0.00 | 0.18 | 0.00 | 60 | 1005.6 |
| 20260507065035 | 12 | 174 | 0.0 | 4.8 | 0.00 | 0.18 | 0.00 | 60 | 1005.6 |
| 20260507065031 | 12 | 2 | 0.0 | 1.6 | 0.00 | 0.18 | 0.00 | 59 | 1005.5 |
| 20260507064033 | 12 | 44 | 0.0 | 4.8 | 0.00 | 0.18 | 0.00 | 62 | 1005.4 |
| 20260507064029 | 12 | 226 | 0.0 | 4.8 | 0.00 | 0.18 | 0.00 | 61 | 1005.5 |
| 20260507063033 | 12 | 37 | 0.0 | 8.0 | 0.00 | 0.18 | 0.00 | 59 | 1005.4 |
| 20260507063029 | 12 | 84 | 0.0 | 8.0 | 0.00 | 0.18 | 0.00 | 61 | 1005.5 |
| 20260507062029 | 13 | 303 | 0.0 | 9.7 | 0.00 | 0.18 | 0.00 | 55 | 1005.0 |
| 20260507061528 | 13 | 323 | 0.0 | 9.7 | 0.00 | 0.18 | 0.00 | 49 | 1005.1 |
| 20260507061028 | 13 | 68 | 0.0 | 6.4 | 0.00 | 0.18 | 0.00 | 47 | 1005.3 |
| 20260507060527 | 13 | 318 | 0.0 | 8.0 | 0.00 | 0.18 | 0.00 | 46 | 1005.5 |
| 20260507060027 | 13 | 262 | 0.0 | 8.0 | 0.00 | 0.18 | 0.00 | 46 | 1005.4 |
| 20260507055529 | 13 | 302 | 0.0 | 4.8 | 0.00 | 0.18 | 0.00 | 45 | 1005.4 |
| 20260507055027 | 13 | 336 | 0.0 | 0.0 | 0.00 | 0.18 | 0.00 | 45 | 1005.5 |
| 20260507054527 | 13 | 300 | 0.0 | 0.0 | 0.00 | 0.18 | 0.00 | 45 | 1005.9 |
| 20260507054026 | 13 | 60 | 0.0 | 0.0 | 0.00 | 0.18 | 0.00 | 45 | 1005.8 |
| 20260507053526 | 13 | 112 | 0.0 | 0.0 | 0.00 | 0.18 | 0.00 | 46 | 1005.8 |
| 20260507053026 | 13 | 80 | 0.0 | 3.2 | 0.00 | 0.18 | 0.00 | 45 | 1005.7 |
| 20260507052529 | 13 | 142 | 0.0 | 6.4 | 0.00 | 0.18 | 0.00 | 44 | 1005.4 |
| 20260507052524 | 13 | 300 | 0.0 | 3.2 | 0.00 | 0.18 | 0.00 | 46 | 1005.4 |
| 20260507052130 | 14 | 142 | 0.0 | 8.0 | 0.00 | 0.18 | 0.00 | 42 | 1005.4 |
| 20260507051630 | 14 | 258 | 0.0 | 8.0 | 0.00 | 0.18 | 0.00 | 39 | 1005.5 |
| 20260507050526 | 14 | 300 | 0.0 | 0.0 | 0.00 | 0.18 | 0.00 | 33 | 1005.4 |
| 20260507050025 | 14 | 300 | 0.0 | 0.0 | 0.00 | 0.18 | 0.00 | 33 | 1005.5 |
| 20260507045529 | 14 | 312 | 0.0 | 8.0 | 0.00 | 0.18 | 0.00 | 32 | 1005.4 |
| 20260507045525 | 14 | 333 | 0.0 | 8.0 | 0.00 | 0.18 | 0.00 | 31 | 1005.4 |
| 20260507044523 | 15 | 258 | 0.0 | 4.8 | 0.03 | 0.18 | 0.00 | 30 | 1005.2 |
| 20260507044022 | 15 | 233 | 0.0 | 0.0 | 0.03 | 0.18 | 0.00 | 30 | 1005.3 |
| 20260507043524 | 15 | 269 | 0.0 | 0.0 | 0.03 | 0.18 | 0.00 | 30 | 1005.2 |
| 20260507043520 | 15 | 30 | 0.0 | 0.0 | 0.03 | 0.18 | 0.00 | 30 | 1005.2 |
| 20260507042519 | 15 | 219 | 0.0 | 0.0 | 0.03 | 0.18 | 0.00 | 30 | 1005.3 |
| 20260507042019 | 15 | 221 | 0.0 | 0.0 | 0.03 | 0.18 | 0.00 | 30 | 1005.3 |
| 20260507041523 | 15 | 221 | 0.0 | 0.0 | 0.03 | 0.18 | 0.00 | 30 | 1005.5 |
| 20260507041519 | 15 | 221 | 0.0 | 0.0 | 0.03 | 0.18 | 0.00 | 30 | 1005.4 |
| 20260507040523 | 15 | 341 | 0.0 | 0.0 | 0.03 | 0.18 | 0.00 | 30 | 1005.7 |
| 20260507040519 | 15 | 189 | 0.0 | 0.0 | 0.03 | 0.18 | 0.00 | 30 | 1005.6 |
| 20260507035519 | 15 | 254 | 0.0 | 0.0 | 0.03 | 0.18 | 0.18 | 30 | 1005.6 |
| 20260507035019 | 15 | 225 | 0.0 | 0.0 | 0.03 | 0.18 | 0.18 | 30 | 1005.6 |
| 20260507034519 | 15 | 336 | 0.0 | 0.0 | 0.00 | 0.15 | 0.15 | 31 | 1005.4 |
| 20260507034017 | 15 | 255 | 0.0 | 9.7 | 0.00 | 0.15 | 0.15 | 31 | 1005.3 |
| 20260507033517 | 15 | 257 | 0.0 | 9.7 | 0.00 | 0.15 | 0.15 | 32 | 1005.4 |
| 20260507033021 | 15 | 73 | 0.0 | 0.0 | 0.00 | 0.15 | 0.15 | 32 | 1005.1 |
| 20260507033017 | 15 | 138 | 0.0 | 0.0 | 0.00 | 0.15 | 0.15 | 32 | 1005.2 |
| 20260507032016 | 15 | 233 | 0.0 | 0.0 | 0.00 | 0.15 | 0.15 | 32 | 1005.0 |
| 20260507031515 | 15 | 295 | 0.0 | 8.0 | 0.00 | 0.15 | 0.15 | 32 | 1005.0 |
| 20260507031015 | 15 | 138 | 0.0 | 8.0 | 0.00 | 0.15 | 0.15 | 32 | 1005.0 |
| 20260507030513 | 15 | 248 | 0.0 | 3.2 | 0.00 | 0.15 | 0.15 | 32 | 1004.7 |
| 20260507030013 | 15 | 115 | 0.0 | 3.2 | 0.00 | 0.15 | 0.15 | 32 | 1004.8 |
| 20260507025513 | 15 | 109 | 0.0 | 8.0 | 0.00 | 0.15 | 0.15 | 32 | 1004.9 |
| 20260507025011 | 15 | 216 | 0.0 | 8.0 | 0.00 | 0.15 | 0.15 | 32 | 1005.0 |
| 20260507024515 | 15 | 285 | 0.0 | 0.0 | 0.00 | 0.15 | 0.15 | 31 | 1005.0 |
| 20260507024511 | 15 | 233 | 0.0 | 0.0 | 0.00 | 0.15 | 0.15 | 31 | 1005.0 |
| 20260507023511 | 15 | 116 | 0.0 | 0.0 | 0.00 | 0.15 | 0.15 | 31 | 1005.1 |
| 20260507023011 | 15 | 153 | 0.0 | 0.0 | 0.00 | 0.15 | 0.15 | 31 | 1005.1 |
| 20260507022511 | 15 | 226 | 0.0 | 0.0 | 0.00 | 0.15 | 0.15 | 31 | 1005.1 |
| 20260507022016 | 15 | 124 | 0.0 | 0.0 | 0.00 | 0.15 | 0.15 | 31 | 1005.1 |
| 20260507022011 | 15 | 115 | 0.0 | 0.0 | 0.00 | 0.15 | 0.15 | 31 | 1005.1 |
| 20260507021011 | 15 | 110 | 0.0 | 3.2 | 0.00 | 0.15 | 0.15 | 31 | 1005.0 |
| 20260507020510 | 14 | 130 | 0.0 | 8.0 | 0.00 | 0.15 | 0.15 | 31 | 1005.1 |
| 20260507020013 | 14 | 118 | 0.0 | 0.0 | 0.00 | 0.15 | 0.15 | 31 | 1005.1 |
| 20260507020009 | 14 | 209 | 0.0 | 8.0 | 0.00 | 0.15 | 0.15 | 31 | 1005.0 |
| 20260507015009 | 14 | 142 | 0.0 | 0.0 | 0.00 | 0.15 | 0.15 | 31 | 1005.2 |
| 20260507014510 | 14 | 267 | 0.0 | 0.0 | 0.00 | 0.15 | 0.15 | 31 | 1005.3 |
| 20260507014009 | 14 | 280 | 0.0 | 4.8 | 0.00 | 0.15 | 0.15 | 31 | 1005.2 |
| 20260507013509 | 14 | 264 | 0.0 | 4.8 | 0.00 | 0.15 | 0.15 | 31 | 1005.3 |
| 20260507013009 | 14 | 224 | 1.6 | 9.7 | 0.00 | 0.15 | 0.15 | 31 | 1005.2 |
| 20260507012508 | 14 | 222 | 1.6 | 9.7 | 0.00 | 0.15 | 0.15 | 31 | 1005.3 |
| 20260507012009 | 14 | 122 | 1.6 | 9.7 | 0.00 | 0.15 | 0.15 | 31 | 1005.4 |
| 20260507011508 | 14 | 122 | 0.0 | 9.7 | 0.00 | 0.15 | 0.15 | 31 | 1005.4 |
| 20260507011007 | 14 | 66 | 0.0 | 9.7 | 0.00 | 0.15 | 0.15 | 31 | 1005.5 |
| 20260507010506 | 14 | 301 | 0.0 | 3.2 | 0.00 | 0.15 | 0.15 | 31 | 1005.5 |
| 20260507010007 | 14 | 131 | 0.0 | 0.0 | 0.00 | 0.15 | 0.15 | 31 | 1005.5 |
| 20260507005507 | 14 | 115 | 0.0 | 0.0 | 0.03 | 0.15 | 0.15 | 31 | 1005.5 |
| 20260507005007 | 13 | 144 | 0.0 | 0.0 | 0.03 | 0.15 | 0.15 | 30 | 1005.4 |
| 20260507004508 | 13 | 217 | 0.0 | 12.9 | 0.03 | 0.15 | 0.15 | 30 | 1005.4 |
| 20260507004007 | 13 | 120 | 0.0 | 12.9 | 0.03 | 0.15 | 0.15 | 30 | 1005.5 |
| 20260507003506 | 13 | 124 | 0.0 | 6.4 | 0.03 | 0.15 | 0.15 | 30 | 1005.6 |
| 20260507003007 | 13 | 244 | 1.6 | 6.4 | 0.03 | 0.15 | 0.15 | 30 | 1005.5 |
| 20260507002507 | 13 | 51 | 0.0 | 6.4 | 0.05 | 0.15 | 0.15 | 30 | 1005.5 |
| 20260507002005 | 13 | 121 | 0.0 | 8.0 | 0.05 | 0.15 | 0.15 | 30 | 1005.4 |
| 20260507001504 | 13 | 172 | 0.0 | 8.0 | 0.05 | 0.15 | 0.15 | 30 | 1005.3 |
| 20260507001005 | 13 | 180 | 0.0 | 6.4 | 0.05 | 0.15 | 0.15 | 30 | 1005.2 |
| 20260507000505 | 13 | 109 | 0.0 | 6.4 | 0.05 | 0.15 | 0.15 | 30 | 1005.2 |
| 20260507000006 | 13 | 180 | 1.6 | 11.3 | 0.05 | 0.15 | 0.15 | 30 | 1005.3 |
| 20260506235506 | 13 | 113 | 1.6 | 11.3 | 0.03 | 0.13 | 0.13 | 30 | 1005.4 |
| 20260506235002 | 13 | 115 | 1.6 | 9.7 | 0.03 | 0.13 | 0.13 | 30 | 1005.4 |
| 20260506234503 | 13 | 235 | 1.6 | 16.1 | 0.03 | 0.13 | 0.13 | 30 | 1005.4 |
| 20260506234003 | 13 | 186 | 1.6 | 16.1 | 0.05 | 0.13 | 0.13 | 30 | 1005.3 |
| 20260506233504 | 13 | 139 | 1.6 | 11.3 | 0.05 | 0.13 | 0.13 | 30 | 1005.2 |
| 20260506233002 | 13 | 141 | 0.0 | 8.0 | 0.05 | 0.13 | 0.13 | 30 | 1005.2 |
| 20260506232501 | 13 | 266 | 0.0 | 0.0 | 0.03 | 0.10 | 0.10 | 30 | 1005.2 |
| 20260506232000 | 13 | 141 | 0.0 | 0.0 | 0.03 | 0.10 | 0.10 | 30 | 1005.3 |
| 20260506231501 | 13 | 111 | 0.0 | 0.0 | 0.03 | 0.10 | 0.10 | 30 | 1005.4 |
| 20260506230959 | 13 | 134 | 0.0 | 0.0 | 0.03 | 0.10 | 0.10 | 30 | 1005.5 |
| 20260506230502 | 14 | 113 | 0.0 | 9.7 | 0.03 | 0.10 | 0.10 | 30 | 1005.4 |
| 20260506230458 | 13 | 132 | 0.0 | 4.8 | 0.03 | 0.10 | 0.10 | 30 | 1005.3 |
| 20260506225459 | 14 | 102 | 1.6 | 9.7 | 0.03 | 0.10 | 0.10 | 30 | 1005.3 |
| 20260506224957 | 14 | 84 | 0.0 | 9.7 | 0.03 | 0.10 | 0.10 | 31 | 1005.6 |
| 20260506224454 | 14 | 125 | 1.6 | 11.3 | 0.05 | 0.10 | 0.10 | 31 | 1005.5 |
| 20260506223955 | 14 | 162 | 1.6 | 11.3 | 0.03 | 0.08 | 0.08 | 31 | 1005.6 |
| 20260506223455 | 14 | 284 | 0.0 | 9.7 | 0.03 | 0.08 | 0.08 | 31 | 1005.8 |
| 20260506222952 | 14 | 135 | 1.6 | 9.7 | 0.03 | 0.08 | 0.08 | 32 | 1005.8 |
| 20260506222458 | 15 | 167 | 0.0 | 9.7 | 0.03 | 0.08 | 0.08 | 32 | 1005.8 |
| 20260506222454 | 15 | 82 | 1.6 | 9.7 | 0.03 | 0.08 | 0.08 | 32 | 1005.8 |
| 20260506221450 | 15 | 146 | 0.0 | 8.0 | 0.03 | 0.08 | 0.08 | 32 | 1005.8 |
| 20260506220956 | 15 | 96 | 1.6 | 11.3 | 0.03 | 0.08 | 0.08 | 33 | 1006.0 |
| 20260506220952 | 15 | 138 | 0.0 | 11.3 | 0.03 | 0.08 | 0.08 | 32 | 1005.9 |
| 20260506215948 | 15 | 127 | 1.6 | 11.3 | 0.03 | 0.08 | 0.08 | 33 | 1006.0 |
| 20260506215449 | 15 | 121 | 1.6 | 11.3 | 0.03 | 0.08 | 0.08 | 35 | 1006.1 |
| 20260506214947 | 15 | 130 | 1.6 | 12.9 | 0.03 | 0.08 | 0.08 | 36 | 1006.1 |
| 20260506214446 | 15 | 141 | 1.6 | 12.9 | 0.00 | 0.05 | 0.05 | 37 | 1006.2 |
| 20260506213946 | 15 | 113 | 0.0 | 8.0 | 0.00 | 0.05 | 0.05 | 38 | 1006.2 |
| 20260506213445 | 15 | 128 | 0.0 | 8.0 | 0.00 | 0.05 | 0.05 | 38 | 1006.2 |
| 20260506212942 | 15 | 95 | 1.6 | 9.7 | 0.00 | 0.05 | 0.05 | 39 | 1006.2 |
| 20260506212443 | 15 | 124 | 0.0 | 9.7 | 0.00 | 0.05 | 0.05 | 39 | 1006.3 |
| 20260506211943 | 15 | 103 | 0.0 | 1.6 | 0.00 | 0.05 | 0.05 | 39 | 1006.2 |
| 20260506211444 | 16 | 143 | 0.0 | 6.4 | 0.00 | 0.05 | 0.05 | 41 | 1006.3 |
| 20260506211440 | 15 | 150 | 0.0 | 1.6 | 0.00 | 0.05 | 0.05 | 40 | 1006.3 |
| 20260506210439 | 16 | 224 | 0.0 | 6.4 | 0.03 | 0.05 | 0.05 | 42 | 1006.2 |
| 20260506205942 | 16 | 32 | 0.0 | 6.4 | 0.03 | 0.05 | 0.05 | 43 | 1006.3 |
| 20260506205938 | 16 | 263 | 0.0 | 4.8 | 0.03 | 0.05 | 0.05 | 45 | 1006.4 |
| 20260506204937 | 16 | 248 | 0.0 | 3.2 | 0.03 | 0.05 | 0.05 | 47 | 1006.5 |
| 20260506204437 | 16 | 208 | 0.0 | 0.0 | 0.03 | 0.05 | 0.05 | 49 | 1006.4 |
| 20260506203936 | 16 | 115 | 0.0 | 4.8 | 0.05 | 0.05 | 0.05 | 52 | 1006.4 |
| 20260506203436 | 16 | 139 | 0.0 | 8.0 | 0.05 | 0.05 | 0.05 | 53 | 1006.5 |
| 20260506202937 | 16 | 132 | 0.0 | 8.0 | 0.05 | 0.05 | 0.05 | 54 | 1006.5 |
| 20260506202436 | 16 | 255 | 0.0 | 8.0 | 0.05 | 0.05 | 0.05 | 55 | 1006.3 |
| 20260506201936 | 16 | 101 | 0.0 | 1.6 | 0.05 | 0.05 | 0.05 | 55 | 1006.3 |
| 20260506201436 | 16 | 134 | 0.0 | 0.0 | 0.05 | 0.05 | 0.05 | 55 | 1006.1 |